PBO Station Position Time Series. Reference Frame : NAM14
Format Version,1.1.0
4-character ID,ARML
Station name,ArmorelHS_AR2018
Begin Date, 2018-01-26
End Date, 2019-07-29
Release Date, 2019-10-03
Reference position, 35.9172821049 North Latitude, -89.8028978806 East Longitude, 50.03364 meters elevation,
Date, North (mm), East (mm), Vertical (mm), North Std. Deviation (mm), East Std. Deviation (mm),              Vertical Std. Deviation (mm), Quality,
2018-01-26,0.00, 0.00, 0.00, 1.89, 1.62, 7.44, repro,
2018-01-27,-1.09, -1.09, -6.70, 1.90, 1.64, 7.51, repro,
2018-01-28,-2.30, -0.18, -4.70, 1.88, 1.62, 7.38, repro,
2018-01-29,-0.47, -1.30, -3.02, 1.87, 1.61, 7.32, repro,
2018-01-30,-0.27, -0.14, 0.63, 1.87, 1.62, 7.36, repro,
2018-01-31,-1.55, -0.44, 7.95, 1.87, 1.62, 7.39, repro,
2018-02-01,-0.63, -0.67, 8.45, 1.88, 1.62, 7.36, repro,
2018-02-02,-0.40, -1.21, -7.16, 1.88, 1.63, 7.42, repro,
2018-02-03,-1.22, -0.22, 6.16, 1.86, 1.62, 7.33, repro,
2018-02-04,-1.42, 1.17, 10.35, 1.89, 1.61, 7.38, repro,
2018-02-05,-0.29, 0.11, 3.54, 1.93, 1.63, 7.52, repro,
2018-02-06,-0.96, -0.38, 0.29, 1.93, 1.71, 7.75, repro,
2018-02-07,0.11, -1.29, 2.01, 1.87, 1.62, 7.40, repro,
2018-02-08,-0.86, -0.76, -4.41, 1.90, 1.66, 7.62, repro,
2018-02-09,-1.05, -0.95, 1.61, 1.88, 1.62, 7.40, repro,
2018-02-10,-0.48, -0.18, 10.03, 1.93, 1.68, 7.67, repro,
2018-02-11,-1.39, -0.98, 9.46, 1.88, 1.61, 7.35, repro,
2018-02-12,-0.84, -1.14, -3.25, 1.87, 1.61, 7.39, repro,
2018-02-13,-0.40, -0.26, -7.23, 1.94, 1.63, 7.53, repro,
2018-02-14,-1.75, 1.09, -2.81, 1.95, 1.65, 7.67, repro,
2018-02-15,-0.32, 0.17, 5.54, 1.89, 1.62, 7.43, repro,
2018-02-16,-1.36, -0.45, 6.90, 1.88, 1.62, 7.38, repro,
2018-02-17,-0.67, -1.02, 6.80, 1.87, 1.61, 7.38, repro,
2018-02-18,-0.79, -0.09, -1.49, 1.88, 1.61, 7.38, repro,
2018-02-19,0.09, -0.11, -3.65, 1.88, 1.63, 7.45, repro,
2018-02-20,-0.16, -0.56, 0.36, 1.88, 1.62, 7.43, repro,
2018-02-21,-2.79, -1.63, 3.64, 2.09, 1.77, 8.52, repro,
2018-02-22,-1.07, -1.04, -5.56, 1.87, 1.62, 7.42, repro,
2018-02-23,-2.52, -0.96, -2.21, 2.06, 1.78, 8.30, repro,
2018-02-24,-1.76, -0.58, 7.51, 1.93, 1.68, 7.67, repro,
2018-02-25,-0.42, -1.05, 6.21, 1.89, 1.63, 7.50, repro,
2018-02-26,-0.91, 0.30, -0.49, 1.87, 1.61, 7.35, repro,
2018-02-27,-0.81, 0.04, -0.03, 1.88, 1.62, 7.38, repro,
2018-02-28,-0.92, 0.27, 0.22, 1.90, 1.63, 7.49, repro,
2018-03-01,-0.59, -2.12, -7.11, 1.94, 1.66, 7.57, repro,
2018-03-02,-1.37, -0.67, -8.36, 1.92, 1.65, 7.48, repro,
2018-03-03,-0.73, -0.87, -12.76, 1.88, 1.62, 7.41, repro,
2018-03-04,-0.85, -0.31, -4.11, 1.88, 1.62, 7.43, repro,
2018-03-05,-0.35, -1.09, -2.96, 1.89, 1.62, 7.47, repro,
2018-03-06,-0.51, -0.32, -4.07, 1.94, 1.65, 7.66, repro,
2018-03-07,-1.43, -0.38, -2.71, 1.88, 1.62, 7.40, repro,
2018-03-08,-1.76, -0.34, -5.81, 1.90, 1.67, 7.52, repro,
2018-03-09,-2.06, 0.38, -1.59, 1.89, 1.66, 7.47, repro,
2018-03-10,-0.62, -1.43, -4.07, 1.86, 1.62, 7.40, repro,
2018-03-11,-0.71, -0.71, 4.68, 1.88, 1.62, 7.42, repro,
2018-03-12,-1.33, -0.40, -7.35, 1.88, 1.61, 7.37, repro,
2018-03-13,-1.11, -0.56, -3.84, 1.88, 1.63, 7.44, repro,
2018-03-14,-1.21, -0.18, -0.91, 1.88, 1.62, 7.46, repro,
2018-03-15,-2.41, 0.94, 7.21, 1.90, 1.66, 7.56, repro,
2018-03-16,-2.19, 0.80, 10.26, 1.87, 1.61, 7.39, repro,
2018-03-17,-2.07, -1.49, 8.58, 1.87, 1.61, 7.38, repro,
2018-03-18,-1.84, -0.82, 7.11, 1.89, 1.63, 7.49, repro,
2018-03-19,-1.81, -1.07, 12.50, 1.94, 1.68, 7.78, repro,
2018-03-20,-2.46, -1.04, 8.93, 1.87, 1.61, 7.38, repro,
2018-03-21,-1.47, -0.97, 8.80, 1.83, 1.57, 7.15, repro,
2018-03-22,-1.86, -0.11, 1.03, 1.84, 1.57, 7.16, repro,
2018-03-23,-1.52, -1.44, 7.56, 1.86, 1.58, 7.27, repro,
2018-03-24,-1.81, -1.83, 10.36, 1.87, 1.58, 7.27, repro,
2018-03-25,-0.72, -1.10, 9.18, 1.92, 1.68, 7.62, repro,
2018-03-26,-1.15, -0.88, 9.14, 1.84, 1.57, 7.19, repro,
2018-03-27,-1.96, -2.87, 8.58, 1.87, 1.58, 7.32, repro,
2018-03-28,-2.09, -0.21, 9.12, 1.87, 1.58, 7.31, repro,
2018-03-29,-2.37, -0.79, 19.26, 1.88, 1.59, 7.34, repro,
2018-03-30,-0.21, -1.23, 7.08, 1.85, 1.58, 7.25, repro,
2018-03-31,-1.04, 0.20, 7.40, 1.84, 1.57, 7.20, repro,
2018-04-01,-0.94, -0.99, 6.13, 1.84, 1.57, 7.20, repro,
2018-04-02,-2.66, -0.43, 14.52, 1.86, 1.58, 7.26, repro,
2018-04-03,-1.24, -0.52, 11.55, 1.86, 1.59, 7.30, repro,
2018-04-04,-1.19, -1.12, 4.62, 1.87, 1.57, 7.27, repro,
2018-04-05,0.24, -2.08, 6.71, 1.89, 1.58, 7.36, repro,
2018-04-06,-0.58, 0.17, 16.46, 1.90, 1.58, 7.36, repro,
2018-04-07,-0.87, -0.70, 9.53, 1.86, 1.57, 7.23, repro,
2018-04-08,-0.95, 0.42, 9.45, 1.85, 1.58, 7.26, repro,
2018-04-09,-0.94, -1.02, 3.20, 1.86, 1.58, 7.26, repro,
2018-04-10,-0.29, -0.83, 2.68, 1.85, 1.57, 7.20, repro,
2018-04-11,-0.36, -0.47, 8.29, 1.85, 1.57, 7.23, repro,
2018-04-12,-1.33, -0.68, 10.96, 1.89, 1.60, 7.31, repro,
2018-04-13,-1.21, -1.23, 14.73, 2.03, 1.80, 8.16, repro,
2018-04-14,-1.25, -0.68, 9.86, 1.90, 1.62, 7.36, repro,
2018-04-15,-0.97, -1.26, 6.02, 1.86, 1.58, 7.25, repro,
2018-04-16,-0.02, -1.97, 4.37, 1.85, 1.57, 7.21, repro,
2018-04-17,0.12, 0.44, 13.46, 2.43, 2.06, 9.40, repro,
2018-04-18,0.34, -1.86, 11.28, 1.89, 1.64, 7.43, repro,
2018-04-19,-1.12, -0.85, 7.97, 1.85, 1.57, 7.18, repro,
2018-04-20,-1.24, 0.41, 3.89, 1.86, 1.58, 7.23, repro,
2018-04-21,0.21, -0.74, 4.76, 1.86, 1.59, 7.30, repro,
2018-04-22,-1.42, -0.92, 11.88, 1.85, 1.58, 7.22, repro,
2018-04-23,-1.84, -1.30, 3.88, 1.89, 1.62, 7.32, repro,
2018-04-24,-1.53, 0.12, 4.68, 1.86, 1.58, 7.23, repro,
2018-04-25,-0.94, 0.31, 1.12, 1.86, 1.58, 7.26, repro,
2018-04-26,-1.31, 0.37, 10.67, 1.86, 1.59, 7.28, repro,
2018-04-27,1.06, -1.91, 12.42, 1.94, 1.70, 7.66, repro,
2018-04-28,-1.20, -0.91, 6.04, 1.84, 1.57, 7.13, repro,
2018-04-29,-1.15, -0.96, 4.28, 1.86, 1.58, 7.23, repro,
2018-04-30,-1.30, -0.70, 6.33, 1.91, 1.60, 7.39, repro,
2018-05-01,-2.36, -0.26, 9.41, 1.96, 1.67, 7.64, repro,
2018-05-02,-0.48, 0.07, 8.67, 1.86, 1.58, 7.22, repro,
2018-05-03,0.04, -0.66, 9.84, 1.89, 1.60, 7.42, repro,
2018-05-04,0.59, -1.54, 4.67, 1.91, 1.62, 7.46, repro,
2018-05-05,-2.91, -0.67, 2.08, 1.92, 1.62, 7.45, repro,
2018-05-06,-0.70, 0.01, 6.48, 1.96, 1.64, 7.46, repro,
2018-05-07,-0.49, -0.21, 7.13, 1.87, 1.60, 7.35, repro,
2018-05-08,-0.48, -0.69, 7.90, 1.84, 1.57, 7.17, repro,
2018-05-09,-2.01, -0.60, 10.44, 1.85, 1.58, 7.22, repro,
2018-05-10,-1.05, -1.25, 10.86, 1.86, 1.58, 7.21, repro,
2018-05-11,-1.09, -0.05, 16.89, 1.87, 1.57, 7.19, repro,
2018-05-12,-0.45, -1.31, 8.35, 1.86, 1.58, 7.19, repro,
2018-05-13,-1.34, -0.90, 10.27, 1.92, 1.58, 7.40, repro,
2018-05-14,0.09, -0.22, 6.01, 1.86, 1.58, 7.21, repro,
2018-05-15,1.21, -0.63, 10.35, 1.97, 1.66, 7.59, repro,
2018-05-16,-1.20, -2.37, 18.29, 2.00, 1.75, 7.80, repro,
2018-05-17,-0.35, -3.09, 16.69, 1.92, 1.62, 7.50, repro,
2018-05-18,-2.16, 0.21, 15.49, 1.87, 1.63, 7.32, repro,
2018-05-19,-1.63, -0.63, 11.17, 2.33, 2.15, 9.04, repro,
2018-05-20,1.26, -0.84, -1.65, 2.14, 1.76, 8.22, repro,
2018-05-21,-0.48, -0.39, 24.21, 1.89, 1.63, 7.44, repro,
2018-05-22,0.94, 1.29, 18.69, 1.85, 1.58, 7.19, repro,
2018-05-23,-2.05, -0.84, 10.98, 1.88, 1.59, 7.32, repro,
2018-05-24,0.13, -1.30, 12.06, 1.87, 1.58, 7.27, repro,
2018-05-25,-0.07, -0.85, 7.90, 1.91, 1.66, 7.52, repro,
2018-05-26,-0.30, -0.46, 15.33, 1.89, 1.63, 7.42, repro,
2018-05-27,-1.32, 0.92, 7.35, 1.87, 1.59, 7.28, repro,
2018-05-28,-0.74, -2.19, 5.85, 1.96, 1.72, 7.68, repro,
2018-05-29,-0.62, -0.82, 12.38, 1.94, 1.69, 7.60, repro,
2018-05-30,-1.63, -1.29, 20.64, 1.96, 1.66, 7.62, repro,
2018-05-31,-1.09, -0.06, 17.43, 1.87, 1.58, 7.25, repro,
2018-06-01,-0.92, -1.45, 18.09, 2.02, 1.79, 8.06, repro,
2018-06-02,-0.02, -0.88, 10.77, 1.87, 1.59, 7.32, repro,
2018-06-03,-0.62, -1.83, 21.32, 2.04, 1.71, 7.93, repro,
2018-06-04,-1.28, -0.49, 10.28, 1.86, 1.57, 7.11, repro,
2018-06-05,-1.56, -0.26, 22.23, 1.85, 1.56, 7.20, repro,
2018-06-06,-0.73, -0.59, 18.84, 1.85, 1.59, 7.28, repro,
2018-06-07,-2.47, -0.40, 15.78, 1.87, 1.59, 7.22, repro,
2018-06-08,0.58, 1.13, 3.99, 1.90, 1.64, 7.48, repro,
2018-06-09,-2.21, -3.92, 10.74, 1.97, 1.71, 7.67, repro,
2018-06-10,-0.04, -1.59, 21.49, 1.87, 1.56, 7.19, repro,
2018-06-11,0.02, 0.18, 3.54, 2.09, 1.80, 8.21, repro,
2018-06-12,-0.98, -0.10, 8.00, 2.05, 1.77, 8.09, repro,
2018-06-13,-0.77, -0.96, 15.97, 2.25, 1.98, 8.65, repro,
2018-06-14,-1.73, -0.85, 14.20, 1.85, 1.57, 7.18, repro,
2018-06-15,-0.91, -4.13, 14.90, 1.90, 1.59, 7.23, repro,
2018-06-16,0.49, -0.98, 18.99, 1.85, 1.58, 7.26, repro,
2018-06-17,-2.62, -2.58, 4.53, 1.92, 1.66, 7.42, repro,
2018-06-18,-1.46, -0.15, 16.68, 1.87, 1.58, 7.22, repro,
2018-06-19,-0.10, -1.34, 10.33, 1.87, 1.60, 7.22, repro,
2018-06-20,-1.76, -1.03, 9.87, 1.86, 1.58, 7.20, repro,
2018-06-21,1.61, -0.97, 20.22, 1.98, 1.72, 7.86, repro,
2018-06-22,-0.35, -1.97, 12.52, 1.88, 1.63, 7.37, repro,
2018-06-23,0.57, -0.12, 14.45, 1.87, 1.60, 7.31, repro,
2018-06-24,-0.88, 0.35, 14.25, 1.90, 1.62, 7.42, repro,
2018-06-25,-1.31, -0.47, 15.83, 1.86, 1.59, 7.24, repro,
2018-06-26,-0.47, -1.46, 13.41, 1.86, 1.57, 7.15, repro,
2018-06-27,-0.26, -0.78, 13.24, 2.03, 1.73, 7.81, repro,
2018-06-28,-0.62, -0.59, 17.32, 1.87, 1.57, 7.20, repro,
2018-06-29,1.78, -0.41, 15.14, 2.15, 1.88, 8.40, repro,
2018-06-30,0.74, -0.97, 16.45, 1.88, 1.63, 7.38, repro,
2018-07-01,1.92, -1.89, 11.03, 1.90, 1.62, 7.41, repro,
2018-07-02,1.91, -0.47, 26.09, 1.90, 1.62, 7.31, repro,
2018-07-03,-0.01, 1.05, 11.69, 1.92, 1.62, 7.42, repro,
2018-07-04,0.03, -0.47, 10.16, 1.87, 1.61, 7.31, repro,
2018-07-05,-1.39, -0.14, 9.77, 1.88, 1.61, 7.32, repro,
2018-07-06,-2.90, -2.22, 13.70, 1.95, 1.66, 7.63, repro,
2018-07-07,-2.63, -0.18, 6.79, 1.87, 1.57, 7.17, repro,
2018-07-08,-0.01, -1.80, 11.93, 1.87, 1.58, 7.21, repro,
2018-07-09,-1.11, 0.81, 13.57, 1.86, 1.58, 7.21, repro,
2018-07-10,-0.51, -2.24, 5.82, 1.86, 1.59, 7.20, repro,
2018-07-11,1.38, -0.66, 19.83, 1.86, 1.58, 7.17, repro,
2018-07-12,0.64, -0.70, 18.48, 1.89, 1.62, 7.27, repro,
2018-07-13,-1.73, -0.54, 20.89, 1.90, 1.63, 7.38, repro,
2018-07-14,-1.16, -0.74, 20.50, 1.86, 1.59, 7.21, repro,
2018-07-15,-0.99, -0.47, 14.78, 2.28, 2.10, 9.04, repro,
2018-07-16,0.40, 1.12, 18.14, 1.90, 1.60, 7.23, repro,
2018-07-17,0.27, -1.31, 20.63, 1.93, 1.67, 7.52, repro,
2018-07-18,-0.12, -1.10, 20.02, 1.88, 1.57, 7.20, repro,
2018-07-19,-1.15, -0.28, 20.39, 1.87, 1.59, 7.26, repro,
2018-07-20,-0.55, -1.58, 24.15, 1.88, 1.62, 7.37, repro,
2018-07-21,-0.29, -0.13, 19.10, 1.90, 1.63, 7.39, repro,
2018-07-22,-0.90, -1.15, 18.80, 1.85, 1.56, 7.08, repro,
2018-07-23,-0.82, -0.26, 13.49, 1.87, 1.58, 7.21, repro,
2018-07-24,-1.76, -0.04, 20.38, 1.94, 1.58, 7.39, repro,
2018-07-25,-0.59, 0.20, 22.01, 1.90, 1.63, 7.38, repro,
2018-07-26,-0.81, 0.83, 16.45, 1.86, 1.58, 7.18, repro,
2018-07-27,0.23, -0.42, 22.86, 1.91, 1.62, 7.33, repro,
2018-07-28,-0.56, -1.32, 21.15, 1.84, 1.57, 7.09, repro,
2018-07-29,-0.42, -0.84, 13.31, 1.90, 1.58, 7.25, repro,
2018-07-30,-0.18, 0.61, 11.55, 1.95, 1.64, 7.55, repro,
2018-07-31,-3.77, -0.12, 26.32, 2.03, 1.66, 7.92, repro,
2018-08-01,-0.05, -0.57, 22.29, 1.89, 1.62, 7.35, repro,
2018-08-02,-1.26, -0.93, 18.84, 1.90, 1.63, 7.36, repro,
2018-08-03,-2.23, 0.14, 4.37, 1.86, 1.58, 7.15, repro,
2018-08-04,-0.67, -0.91, 11.34, 1.88, 1.59, 7.23, repro,
2018-08-05,0.75, -1.15, 13.92, 1.88, 1.58, 7.23, repro,
2018-08-06,-2.27, -0.16, 14.96, 1.86, 1.59, 7.23, repro,
2018-08-07,-1.77, 0.54, 18.45, 1.94, 1.68, 7.65, repro,
2018-08-08,-0.52, 0.36, 17.59, 1.89, 1.60, 7.26, repro,
2018-08-09,-0.23, -0.11, 23.81, 1.88, 1.58, 7.19, repro,
2018-08-10,-2.03, -0.46, 21.27, 1.87, 1.59, 7.21, repro,
2018-08-11,0.16, 0.03, 17.35, 1.87, 1.60, 7.23, repro,
2018-08-12,-0.29, 0.20, 13.05, 1.95, 1.71, 7.64, repro,
2018-08-13,2.30, -0.24, 15.74, 1.85, 1.56, 7.10, repro,
2018-08-14,-0.38, -0.37, 14.75, 1.87, 1.58, 7.19, repro,
2018-08-15,-0.92, -1.46, 23.10, 1.89, 1.60, 7.31, repro,
2018-08-16,0.11, -0.09, 25.41, 2.05, 1.74, 7.98, repro,
2018-08-17,3.89, -0.87, 14.13, 2.27, 2.05, 9.17, repro,
2018-08-18,0.54, 0.46, 18.58, 1.86, 1.59, 7.21, repro,
2018-08-19,0.39, -0.96, 19.67, 1.85, 1.56, 7.07, repro,
2018-08-20,0.96, -2.55, 14.80, 2.04, 1.68, 7.91, repro,
2018-08-21,-1.25, -1.27, 16.15, 1.86, 1.58, 7.15, repro,
2018-08-22,-0.33, 1.29, 14.64, 1.94, 1.68, 7.59, repro,
2018-08-23,1.11, 0.49, 10.67, 1.91, 1.64, 7.39, repro,
2018-08-24,-0.84, -1.07, 18.55, 1.84, 1.57, 7.12, repro,
2018-08-25,-0.59, -0.59, 20.74, 1.85, 1.57, 7.09, repro,
2018-08-26,1.28, -1.89, 17.57, 1.86, 1.58, 7.12, repro,
2018-08-27,-0.14, -0.69, 11.22, 1.85, 1.57, 7.08, repro,
2018-08-28,1.26, -1.23, 9.94, 1.85, 1.57, 7.10, repro,
2018-08-29,-1.27, -0.41, 18.54, 2.10, 1.69, 8.00, repro,
2018-08-30,-0.89, -1.16, 11.15, 1.85, 1.58, 7.13, repro,
2018-08-31,-1.49, -2.00, 13.94, 1.95, 1.67, 7.64, repro,
2018-09-01,0.28, -1.31, 17.93, 1.84, 1.56, 7.08, repro,
2018-09-02,-1.91, -1.91, 18.14, 1.85, 1.57, 7.12, repro,
2018-09-03,0.57, -3.37, 10.27, 1.85, 1.57, 7.16, repro,
2018-09-04,-0.14, -0.73, 8.20, 1.84, 1.57, 7.08, repro,
2018-09-05,-0.63, -1.86, 19.56, 1.85, 1.58, 7.16, repro,
2018-09-06,-0.53, -0.75, 9.19, 1.89, 1.62, 7.22, repro,
2018-09-07,-1.01, -0.56, 19.24, 1.89, 1.64, 7.33, repro,
2018-09-08,0.85, -1.79, 16.55, 1.90, 1.63, 7.38, repro,
2018-09-09,-0.67, -1.29, 15.98, 1.87, 1.59, 7.20, repro,
2018-09-10,1.12, -0.90, 12.83, 1.85, 1.55, 7.04, repro,
2018-09-11,0.16, 0.02, 9.93, 1.89, 1.58, 7.21, repro,
2018-09-12,0.81, -0.93, 15.62, 1.83, 1.55, 7.00, repro,
2018-09-13,0.30, -0.31, 12.90, 1.85, 1.56, 7.09, repro,
2018-09-14,1.47, -1.19, 8.15, 1.86, 1.61, 7.17, repro,
2018-09-15,-0.52, -0.81, 12.43, 1.85, 1.56, 7.10, repro,
2018-09-16,-0.99, -1.64, 14.47, 1.84, 1.55, 7.04, repro,
2018-09-17,-0.65, -0.48, 16.35, 1.86, 1.56, 7.10, repro,
2018-09-18,0.11, -1.56, 17.87, 1.86, 1.55, 7.08, repro,
2018-09-19,-1.85, -2.24, 10.84, 1.87, 1.58, 7.19, repro,
2018-09-20,0.60, -0.58, 19.65, 1.86, 1.56, 7.10, repro,
2018-09-21,-2.09, -1.27, 14.95, 2.03, 1.78, 7.94, repro,
2018-09-22,-0.10, -2.93, 10.16, 1.87, 1.58, 7.20, repro,
2018-09-23,-0.28, 0.11, 9.87, 1.85, 1.56, 7.10, repro,
2018-09-24,-1.55, -1.12, 11.30, 1.89, 1.62, 7.30, repro,
2018-09-25,-2.58, -1.21, 22.79, 2.00, 1.70, 7.57, repro,
2018-09-26,2.90, -1.30, 20.85, 1.92, 1.63, 7.34, repro,
2018-09-27,-0.45, -0.76, 16.78, 1.85, 1.59, 7.19, repro,
2018-09-28,-0.58, -0.29, 9.82, 1.84, 1.58, 7.13, repro,
2018-09-29,-0.86, 0.35, 11.69, 1.85, 1.58, 7.14, repro,
2018-09-30,-1.09, -2.21, 7.41, 1.85, 1.57, 7.10, repro,
2018-10-01,-0.25, 0.69, 13.03, 1.84, 1.58, 7.12, repro,
2018-10-02,0.35, -0.67, 8.86, 1.86, 1.59, 7.21, repro,
2018-10-03,-0.37, -0.42, 17.56, 1.84, 1.57, 7.11, repro,
2018-10-04,0.31, -1.27, 13.12, 1.89, 1.60, 7.25, repro,
2018-10-05,0.10, -0.79, 13.15, 1.92, 1.66, 7.38, repro,
2018-10-06,-0.65, -0.11, 10.66, 1.93, 1.62, 7.51, repro,
2018-10-07,0.97, -2.18, 14.67, 1.91, 1.63, 7.31, repro,
2018-10-08,0.61, -1.33, 7.64, 1.85, 1.57, 7.14, repro,
2018-10-09,0.39, 0.16, 8.63, 1.85, 1.57, 7.10, repro,
2018-10-10,-2.28, -2.51, 13.03, 1.92, 1.65, 7.37, repro,
2018-10-11,-0.32, -0.87, 18.47, 1.83, 1.56, 7.04, repro,
2018-10-12,-0.43, -1.04, 15.17, 1.85, 1.57, 7.13, repro,
2018-10-13,0.18, -0.71, 12.37, 1.88, 1.59, 7.16, repro,
2018-10-14,-0.81, -1.57, 20.88, 1.88, 1.58, 7.20, repro,
2018-10-15,-1.84, -0.45, 15.08, 1.97, 1.62, 7.56, repro,
2018-10-16,0.29, -1.34, 2.52, 1.89, 1.56, 7.22, repro,
2018-10-17,0.75, 0.17, 0.56, 1.85, 1.56, 7.09, repro,
2018-10-18,0.74, -1.01, -1.00, 1.85, 1.56, 7.11, repro,
2018-10-19,0.10, -1.24, 4.76, 1.88, 1.59, 7.23, repro,
2018-10-20,-0.65, -1.78, 6.36, 1.89, 1.60, 7.30, repro,
2018-10-21,-0.43, -1.34, 4.43, 1.84, 1.54, 7.00, repro,
2018-10-22,-1.72, 0.59, 5.84, 1.88, 1.57, 7.21, repro,
2018-10-23,-0.76, 0.12, 5.16, 1.84, 1.56, 7.06, repro,
2018-10-24,0.58, -0.93, -0.57, 1.94, 1.64, 7.39, repro,
2018-10-25,0.06, -1.28, 15.55, 1.86, 1.58, 7.22, repro,
2018-10-26,-1.44, -1.79, 18.92, 1.85, 1.57, 7.13, repro,
2018-10-27,-0.86, -1.03, 12.88, 1.84, 1.55, 7.04, repro,
2018-10-28,-0.78, -0.83, 15.83, 1.85, 1.57, 7.10, repro,
2018-10-29,-0.28, -0.58, 10.51, 1.85, 1.57, 7.09, repro,
2018-10-30,-0.57, -0.86, 16.43, 1.86, 1.57, 7.09, repro,
2018-10-31,-0.52, -1.69, 14.54, 1.88, 1.58, 7.21, repro,
2018-11-01,0.60, -1.64, 15.23, 1.89, 1.58, 7.25, repro,
2018-11-02,-0.58, -1.35, 18.93, 1.84, 1.56, 7.06, repro,
2018-11-03,-0.41, -0.95, 16.32, 1.84, 1.56, 7.06, repro,
2018-11-04,-0.05, -0.01, 13.27, 1.86, 1.56, 7.07, repro,
2018-11-05,1.16, 0.37, 8.36, 1.88, 1.58, 7.20, repro,
2018-11-06,0.13, -1.29, 14.40, 1.86, 1.55, 7.05, repro,
2018-11-07,1.06, -0.84, 9.29, 1.85, 1.55, 7.05, repro,
2018-11-08,0.89, -0.78, 8.50, 1.85, 1.56, 7.07, repro,
2018-11-09,-1.58, -1.34, 3.19, 1.85, 1.55, 7.04, repro,
2018-11-10,-0.69, -0.83, 0.65, 1.85, 1.55, 7.03, repro,
2018-11-11,-0.69, -0.83, 0.39, 1.86, 1.56, 7.10, repro,
2018-11-12,0.39, -0.72, 3.38, 1.87, 1.59, 7.23, repro,
2018-11-13,0.15, -0.05, 2.36, 1.84, 1.56, 7.06, repro,
2018-11-14,0.32, -1.80, -1.79, 1.85, 1.56, 7.10, repro,
2018-11-15,-2.04, 0.73, 3.96, 1.97, 1.69, 7.59, repro,
2018-11-16,-0.88, -0.19, 7.81, 1.85, 1.55, 7.06, repro,
2018-11-17,-0.49, 0.51, 4.81, 1.86, 1.58, 7.22, repro,
2018-11-18,-0.08, -0.03, 2.31, 1.86, 1.58, 7.19, repro,
2018-11-19,0.02, -0.30, 4.32, 1.86, 1.60, 7.26, repro,
2018-11-20,0.21, -0.62, 1.47, 1.90, 1.64, 7.37, repro,
2018-11-21,-0.49, 0.40, -0.99, 1.89, 1.58, 7.25, repro,
2018-11-22,-0.37, 0.80, 0.73, 1.87, 1.59, 7.25, repro,
2018-11-23,-0.15, 0.36, 7.41, 1.87, 1.60, 7.32, repro,
2018-11-24,-0.31, -0.54, 13.88, 1.89, 1.63, 7.37, repro,
2018-11-25,-0.72, 1.75, 13.35, 1.88, 1.61, 7.36, repro,
2018-11-26,-0.19, -0.93, 9.34, 1.88, 1.58, 7.23, repro,
2018-11-27,-0.90, -0.36, 7.52, 1.87, 1.58, 7.18, repro,
2018-11-28,-0.77, -0.03, 13.25, 1.86, 1.58, 7.19, repro,
2018-11-29,0.38, 0.89, 10.82, 1.94, 1.61, 7.44, repro,
2018-11-30,1.41, 0.81, 11.95, 1.93, 1.63, 7.47, repro,
2018-12-01,0.15, 0.51, 16.02, 1.97, 1.68, 7.74, repro,
2018-12-02,0.05, -1.20, 15.95, 1.88, 1.58, 7.22, repro,
2018-12-03,-0.22, -0.87, 6.22, 1.88, 1.57, 7.21, repro,
2018-12-04,-0.13, -0.58, 4.50, 1.87, 1.59, 7.23, repro,
2018-12-05,0.37, -0.45, 2.69, 1.87, 1.59, 7.27, repro,
2018-12-06,0.28, -0.12, -1.48, 1.87, 1.60, 7.27, repro,
2018-12-07,0.39, -0.50, -2.65, 1.90, 1.64, 7.39, repro,
2018-12-08,0.36, -0.15, -0.25, 1.88, 1.59, 7.23, repro,
2018-12-09,-1.08, 0.56, 2.42, 1.91, 1.62, 7.48, repro,
2018-12-10,-0.42, -0.40, 5.65, 1.86, 1.58, 7.21, repro,
2018-12-11,-0.38, 0.38, 4.43, 1.87, 1.59, 7.27, repro,
2018-12-12,-1.11, -0.58, 7.12, 1.86, 1.56, 7.11, repro,
2018-12-13,0.45, 0.20, 13.71, 1.87, 1.59, 7.25, repro,
2018-12-14,-0.03, -0.31, 11.79, 1.88, 1.60, 7.28, repro,
2018-12-15,0.15, -0.53, 11.62, 1.87, 1.59, 7.25, repro,
2018-12-16,-0.48, -1.20, 5.02, 1.86, 1.58, 7.18, repro,
2018-12-17,-0.81, -0.11, 7.95, 1.88, 1.59, 7.29, repro,
2018-12-18,-0.43, 0.18, 5.08, 1.87, 1.58, 7.25, repro,
2018-12-19,-0.82, -0.26, 8.12, 1.88, 1.59, 7.29, repro,
2018-12-20,-0.60, -1.13, 15.29, 1.87, 1.59, 7.28, repro,
2018-12-21,-0.63, -1.99, 18.14, 1.85, 1.56, 7.11, repro,
2018-12-22,-0.71, -0.61, 16.46, 1.84, 1.54, 7.03, repro,
2018-12-23,-0.09, -0.66, 8.53, 1.87, 1.59, 7.28, repro,
2018-12-24,-0.92, 0.40, 3.87, 1.86, 1.58, 7.23, repro,
2018-12-25,-0.36, -0.51, 6.96, 1.86, 1.55, 7.12, repro,
2018-12-26,-0.71, 0.62, 5.32, 1.93, 1.62, 7.51, repro,
2018-12-27,-0.28, -0.48, 4.34, 1.90, 1.60, 7.32, repro,
2018-12-28,-0.08, -0.50, 11.12, 1.86, 1.58, 7.21, repro,
2018-12-29,-0.33, -0.47, 6.39, 1.86, 1.58, 7.23, repro,
2018-12-30,-0.31, -0.50, 9.92, 1.87, 1.58, 7.25, repro,
2018-12-31,-1.99, -0.81, 12.50, 1.93, 1.66, 7.58, repro,
2019-01-01,-1.23, 0.12, 7.06, 1.89, 1.59, 7.28, repro,
2019-01-02,-0.62, 0.16, 4.84, 1.87, 1.59, 7.29, repro,
2019-01-03,-0.80, -0.90, 10.88, 1.83, 1.55, 7.06, repro,
2019-01-04,-2.72, 0.20, 18.46, 1.88, 1.60, 7.32, repro,
2019-01-05,0.06, -0.32, 10.71, 1.84, 1.54, 7.02, repro,
2019-01-06,-1.12, 0.44, 5.66, 1.87, 1.56, 7.19, repro,
2019-01-07,-0.84, 0.19, 10.22, 1.87, 1.58, 7.27, repro,
2019-01-08,0.37, -1.03, 4.29, 1.85, 1.56, 7.15, repro,
2019-01-09,-0.00, -1.81, -1.36, 1.86, 1.58, 7.20, repro,
2019-01-10,-0.02, -0.69, -1.34, 1.89, 1.58, 7.18, repro,
2019-01-11,0.53, -0.06, -0.91, 1.92, 1.59, 7.37, repro,
2019-01-12,0.04, -0.29, 6.39, 1.93, 1.60, 7.39, repro,
2019-01-13,-0.47, -1.50, 3.44, 1.85, 1.56, 7.13, repro,
2019-01-14,-0.39, -0.57, -1.04, 1.84, 1.55, 7.05, repro,
2019-01-15,-0.34, -1.22, -1.84, 1.84, 1.54, 7.02, repro,
2019-01-16,-0.71, -0.44, 5.05, 1.85, 1.55, 7.09, repro,
2019-01-17,-2.04, -0.94, 7.30, 1.87, 1.56, 7.15, repro,
2019-01-18,-1.03, -0.48, 7.45, 1.91, 1.58, 7.26, repro,
2019-01-19,-0.47, -0.99, 16.58, 1.90, 1.58, 7.30, repro,
2019-01-20,-0.40, -1.53, 4.53, 1.91, 1.61, 7.37, repro,
2019-01-21,-0.26, -0.68, 5.35, 1.87, 1.60, 7.29, repro,
2019-01-22,-0.72, -0.45, 7.74, 1.90, 1.63, 7.50, repro,
2019-01-23,-0.79, 0.10, 10.16, 1.88, 1.59, 7.28, repro,
2019-01-24,0.08, -0.73, 6.86, 1.86, 1.58, 7.23, repro,
2019-01-25,-0.15, -1.45, -0.42, 1.87, 1.59, 7.26, repro,
2019-01-26,-0.12, -0.22, 4.62, 1.88, 1.61, 7.21, repro,
2019-01-27,-0.55, 1.61, 9.57, 1.88, 1.61, 7.20, sup6f,
2019-01-28,-0.74, -0.20, 9.07, 1.85, 1.55, 7.12, sup6f,
2019-01-29,-0.65, -0.59, 6.48, 1.85, 1.55, 7.10, sup6f,
2019-01-30,-0.40, -0.40, 5.59, 1.83, 1.54, 7.05, sup6f,
2019-01-31,-1.08, 0.32, 1.13, 1.91, 1.57, 7.32, sup6f,
2019-02-01,-0.39, -0.26, 3.89, 1.86, 1.56, 7.14, sup6f,
2019-02-02,-0.78, -0.10, 8.03, 1.84, 1.55, 7.08, sup6f,
2019-02-03,-0.33, -0.43, 12.52, 1.86, 1.55, 7.12, sup6f,
2019-02-04,-1.12, 0.79, 13.21, 1.85, 1.56, 7.11, sup6f,
2019-02-05,-1.19, -0.06, 13.93, 1.85, 1.55, 7.08, sup6f,
2019-02-06,-1.16, -1.22, 13.36, 1.85, 1.55, 7.09, sup6f,
2019-02-07,-1.28, -1.02, 10.82, 1.91, 1.61, 7.35, sup6f,
2019-02-08,0.41, -1.50, 1.59, 1.85, 1.55, 7.10, sup6f,
2019-02-09,-0.39, -1.37, -8.23, 1.85, 1.55, 7.13, sup6f,
2019-02-10,-0.26, -0.19, 1.27, 1.85, 1.56, 7.10, suppf,
2019-02-11,-0.37, -0.50, 10.52, 1.87, 1.59, 7.19, suppf,
2019-02-12,-0.28, -1.08, 11.17, 1.92, 1.64, 7.42, suppf,
2019-02-13,0.23, -1.04, 9.65, 1.85, 1.55, 7.09, suppf,
2019-02-14,-0.20, -0.83, 14.38, 1.90, 1.57, 7.25, suppf,
2019-02-15,-0.31, -1.12, 12.22, 1.90, 1.57, 7.21, suppf,
2019-02-16,0.41, -1.51, 10.30, 1.86, 1.56, 7.13, suppf,
2019-02-17,-0.86, -1.13, 12.77, 1.91, 1.57, 7.31, repro,
2019-02-18,-0.42, -1.20, 5.76, 1.85, 1.56, 7.14, repro,
2019-02-19,0.10, -0.46, -1.33, 1.86, 1.56, 7.12, repro,
2019-02-20,-0.54, 0.31, 8.22, 1.92, 1.60, 7.45, repro,
2019-02-21,0.28, 0.88, -0.32, 1.85, 1.55, 7.10, repro,
2019-02-22,-0.36, -0.74, 4.05, 1.84, 1.56, 7.08, repro,
2019-02-23,-0.84, -0.18, 0.66, 1.91, 1.60, 7.37, repro,
2019-02-24,-1.28, -1.74, 5.95, 1.86, 1.57, 7.14, suppf,
2019-02-25,-1.88, -0.44, -4.60, 1.84, 1.55, 7.03, suppf,
2019-02-26,-1.14, -0.41, -5.57, 1.86, 1.56, 7.10, suppf,
2019-02-27,-1.85, -1.03, 2.53, 1.84, 1.56, 7.08, suppf,
2019-02-28,-1.54, -0.81, 2.90, 1.85, 1.56, 7.09, suppf,
2019-03-01,-1.22, 0.45, -0.28, 1.89, 1.59, 7.29, suppf,
2019-03-02,-2.12, -0.81, -0.00, 1.85, 1.55, 7.06, suppf,
2019-03-03,-2.24, -0.29, 0.37, 1.86, 1.56, 7.13, suppf,
2019-03-04,-1.51, -0.69, -7.01, 1.85, 1.55, 7.07, suppf,
2019-03-05,-1.16, -0.16, -5.80, 1.85, 1.56, 7.09, suppf,
2019-03-06,-1.42, -1.29, -4.71, 1.85, 1.56, 7.10, suppf,
2019-03-07,-2.19, -1.03, 0.88, 1.86, 1.57, 7.16, suppf,
2019-03-08,-3.07, -0.05, 9.83, 1.85, 1.55, 7.05, suppf,
2019-03-09,-0.97, -0.32, 5.16, 1.91, 1.60, 7.34, suppf,
2019-03-10,-1.28, -0.45, 3.93, 1.84, 1.55, 7.05, suppf,
2019-03-11,0.07, -0.03, 0.41, 1.85, 1.56, 7.11, suppf,
2019-03-12,-2.05, -0.24, 4.18, 1.85, 1.56, 7.09, suppf,
2019-03-13,-1.81, -0.03, 5.15, 1.86, 1.57, 7.18, suppf,
2019-03-14,-2.44, 0.58, 20.06, 2.30, 2.01, 9.43, suppf,
2019-03-15,-1.06, -1.16, -0.67, 1.89, 1.56, 7.23, suppf,
2019-03-16,-1.20, -0.62, 0.09, 1.84, 1.56, 7.06, suppf,
2019-03-17,-1.07, -0.88, 0.87, 1.84, 1.55, 7.05, suppf,
2019-03-18,-1.81, -0.78, 0.64, 1.85, 1.56, 7.06, suppf,
2019-03-19,-2.03, -0.08, -3.72, 1.86, 1.56, 7.15, suppf,
2019-03-20,-2.08, 0.00, 4.10, 1.90, 1.62, 7.28, suppf,